User: anonymous   Login
Location: Unspecified
(42.7170°S, 0.0000°E)
Time: 23:44:50
(UTC+00:00)
Language:

N. Korean satellite - Orbit

View from above orbital plane
View from above orbital plane
View from above satellite
View from above satellite

Ground track
Ground track

The orbit data is extracted from the following two-line orbital elements,

1 39026U 12072A   19168.94338162 +.00001004 +00000-0 +38802-4 0  9993
2 39026 097.2104 172.1161 0039911 103.3483 257.2211 15.27802746361427
Epoch (UTC): 17 June 2019 22:38:28
Eccentricity: 0.0039911
inclination: 97.2104°
perigee height: 455 km
apogee height: 510 km
right ascension of ascending node: 172.1161°
argument of perigee: 103.3483°
revolutions per day: 15.27802746
mean anomaly at epoch: 257.2211°
orbit number at epoch: 36142

The dashed part of the orbit path shows where the satellite is in the earth's shadow,  

DLR